Location: Newark
(59.4564°N, 26.6917°E)
Time: 03:40:28
(UTC+00:00)

SR - Pass Details

Date: 25 November 2019
Orbit: 573 x 882 km, 66.7° (Epoch: 10 December)

Event Time Altitude Azimuth Distance (km) Brightness Sun altitude
Rises 15:42:53 0° 281° (W) 3,401 ? -15.6°
Reaches altitude 10° 15:45:27 10° 289° (WNW) 2,497 ? -16.0°
Maximum altitude 15:50:59 42° 359° (N) 1,245 ? -16.6°
Enters shadow 15:54:01 24° 54° (NE) 1,736 ? -17.0°
Drops below altitude 10° 15:56:37 10° 70° (ENE) 2,550 - -17.3°
Sets 15:59:17 0° 77° (ENE) 3,479 - -17.7°
